TimeEDT,TemperatureF,Dew PointF,Humidity,Sea Level PressureIn,VisibilityMPH,Wind Direction,Wind SpeedMPH,Gust SpeedMPH,PrecipitationIn,Events,Conditions,WindDirDegrees,DateUTC
12:15 AM,66.2,62.6,88,30.06,10.0,SSE,8.1,-,N/A,,Mostly Cloudy,150,2013-04-19 04:15:00
12:35 AM,66.2,62.6,88,30.05,10.0,SE,6.9,-,N/A,,Mostly Cloudy,130,2013-04-19 04:35:00
12:55 AM,66.2,62.6,88,30.04,10.0,SE,4.6,-,N/A,,Mostly Cloudy,130,2013-04-19 04:55:00
1:15 AM,68.0,62.6,83,30.03,10.0,SE,6.9,-,N/A,,Overcast,130,2013-04-19 05:15:00
1:35 AM,68.0,62.6,83,30.02,10.0,SE,8.1,-,N/A,,Overcast,140,2013-04-19 05:35:00
1:55 AM,69.8,62.6,78,30.01,10.0,SE,8.1,-,N/A,,Overcast,140,2013-04-19 05:55:00
2:15 AM,66.2,62.6,88,30.00,10.0,SSE,6.9,-,N/A,,Overcast,150,2013-04-19 06:15:00
2:35 AM,66.2,62.6,88,30.00,10.0,SSE,8.1,-,N/A,,Overcast,160,2013-04-19 06:35:00
2:55 AM,68.0,62.6,83,29.99,10.0,SSE,6.9,-,N/A,,Overcast,160,2013-04-19 06:55:00
3:15 AM,68.0,62.6,83,29.98,10.0,SSE,5.8,-,N/A,,Overcast,150,2013-04-19 07:15:00
3:35 AM,68.0,62.6,83,29.98,10.0,SSE,6.9,-,N/A,,Overcast,150,2013-04-19 07:35:00
3:55 AM,68.0,62.6,83,29.97,10.0,SSE,6.9,-,N/A,,Overcast,150,2013-04-19 07:55:00
4:15 AM,68.0,62.6,83,29.97,10.0,South,6.9,-,N/A,,Mostly Cloudy,170,2013-04-19 08:15:00
4:35 AM,68.0,62.6,83,29.96,10.0,South,6.9,-,N/A,,Overcast,170,2013-04-19 08:35:00
4:55 AM,68.0,62.6,83,29.96,10.0,South,6.9,-,N/A,,Overcast,170,2013-04-19 08:55:00
5:15 AM,69.8,62.6,78,29.96,10.0,South,4.6,-,N/A,,Scattered Clouds,190,2013-04-19 09:15:00
5:35 AM,68.0,62.6,83,29.96,10.0,South,9.2,-,N/A,,Mostly Cloudy,190,2013-04-19 09:35:00
5:55 AM,69.8,62.6,78,29.95,10.0,South,10.4,-,N/A,,Overcast,180,2013-04-19 09:55:00
6:15 AM,69.8,62.6,78,29.96,10.0,South,8.1,-,N/A,,Mostly Cloudy,190,2013-04-19 10:15:00
6:35 AM,69.8,62.6,78,29.96,10.0,South,9.2,-,N/A,,Mostly Cloudy,190,2013-04-19 10:35:00
6:55 AM,69.8,62.6,78,29.96,10.0,South,9.2,-,N/A,,Scattered Clouds,180,2013-04-19 10:55:00
7:15 AM,69.8,62.6,78,29.97,10.0,South,8.1,-,N/A,,Partly Cloudy,180,2013-04-19 11:15:00
7:35 AM,69.8,62.6,78,29.97,10.0,South,8.1,-,N/A,,Mostly Cloudy,180,2013-04-19 11:35:00
7:55 AM,69.8,64.4,83,29.97,10.0,South,9.2,-,N/A,,Mostly Cloudy,170,2013-04-19 11:55:00
8:15 AM,69.8,64.4,83,29.97,10.0,South,10.4,-,N/A,,Overcast,190,2013-04-19 12:15:00
8:35 AM,71.6,64.4,78,29.97,10.0,SSW,12.7,-,N/A,,Overcast,200,2013-04-19 12:35:00
8:55 AM,71.6,64.4,78,29.98,10.0,South,11.5,21.9,N/A,,Overcast,190,2013-04-19 12:55:00
9:15 AM,71.6,64.4,78,29.97,10.0,SSW,15.0,21.9,N/A,,Overcast,200,2013-04-19 13:15:00
9:35 AM,73.4,64.4,73,29.97,10.0,SSW,13.8,20.7,N/A,,Overcast,200,2013-04-19 13:35:00
9:55 AM,73.4,66.2,78,29.97,10.0,South,16.1,24.2,N/A,,Overcast,190,2013-04-19 13:55:00
10:15 AM,75.2,66.2,73,29.96,10.0,SSW,17.3,25.3,N/A,,Overcast,200,2013-04-19 14:15:00
10:35 AM,77.0,66.2,69,29.96,10.0,South,13.8,21.9,N/A,,Overcast,190,2013-04-19 14:35:00
10:55 AM,80.6,66.2,61,29.95,10.0,South,23.0,27.6,N/A,,Overcast,190,2013-04-19 14:55:00
11:15 AM,82.4,66.2,58,29.94,10.0,South,17.3,24.2,N/A,,Mostly Cloudy,180,2013-04-19 15:15:00
11:35 AM,82.4,66.2,58,29.93,10.0,South,18.4,27.6,N/A,,Mostly Cloudy,180,2013-04-19 15:35:00
11:55 AM,82.4,64.4,54,29.91,10.0,South,15.0,26.5,N/A,,Scattered Clouds,180,2013-04-19 15:55:00
12:15 PM,82.4,64.4,54,29.90,10.0,South,23.0,31.1,N/A,,Scattered Clouds,180,2013-04-19 16:15:00
12:35 PM,84.2,64.4,51,29.89,10.0,South,21.9,31.1,N/A,,Partly Cloudy,190,2013-04-19 16:35:00
12:55 PM,84.2,66.2,55,29.88,10.0,South,25.3,31.1,N/A,,Partly Cloudy,180,2013-04-19 16:55:00
1:15 PM,86.0,66.2,51,29.87,10.0,South,23.0,33.4,N/A,,Scattered Clouds,190,2013-04-19 17:15:00
1:35 PM,84.2,64.4,51,29.86,10.0,SSW,24.2,33.4,N/A,,Mostly Cloudy,200,2013-04-19 17:35:00
1:55 PM,84.2,66.2,55,29.85,10.0,South,23.0,32.2,N/A,,Mostly Cloudy,190,2013-04-19 17:55:00
2:15 PM,86.0,64.4,48,29.84,10.0,South,23.0,32.2,N/A,,Scattered Clouds,180,2013-04-19 18:15:00
2:35 PM,86.0,64.4,48,29.84,10.0,South,25.3,34.5,N/A,,Mostly Cloudy,190,2013-04-19 18:35:00
2:55 PM,86.0,64.4,48,29.84,10.0,South,21.9,31.1,N/A,,Mostly Cloudy,190,2013-04-19 18:55:00
3:15 PM,86.0,64.4,48,29.83,10.0,SSW,24.2,33.4,N/A,,Mostly Cloudy,210,2013-04-19 19:15:00
3:35 PM,86.0,64.4,48,29.82,10.0,South,17.3,28.8,N/A,,Overcast,180,2013-04-19 19:35:00
3:55 PM,84.2,64.4,51,29.82,10.0,South,17.3,26.5,N/A,,Overcast,180,2013-04-19 19:55:00
4:15 PM,84.2,64.4,51,29.81,10.0,South,15.0,27.6,N/A,,Mostly Cloudy,190,2013-04-19 20:15:00
4:35 PM,84.2,64.4,51,29.80,10.0,South,23.0,31.1,N/A,,Scattered Clouds,180,2013-04-19 20:35:00
4:55 PM,82.4,64.4,54,29.79,10.0,South,24.2,31.1,N/A,,Mostly Cloudy,170,2013-04-19 20:55:00
5:15 PM,82.4,64.4,54,29.80,10.0,South,16.1,26.5,N/A,,Scattered Clouds,180,2013-04-19 21:15:00
5:35 PM,82.4,62.6,51,29.81,10.0,South,19.6,28.8,N/A,,Scattered Clouds,180,2013-04-19 21:35:00
5:55 PM,75.2,62.6,65,29.81,6.0,WSW,16.1,29.9,0.10,Thunderstorm,Mostly Cloudy,240,2013-04-19 21:55:00
6:15 PM,69.8,62.6,78,29.84,10.0,SSW,20.7,26.5,0.18,Thunderstorm,Thunderstorm,200,2013-04-19 22:15:00
6:35 PM,68.0,60.8,78,29.86,5.0,SW,21.9,41.4,0.25,Thunderstorm,Mostly Cloudy,220,2013-04-19 22:35:00
6:55 PM,66.2,62.6,88,29.88,9.0,SW,12.7,-,0.27,Thunderstorm,Mostly Cloudy,230,2013-04-19 22:55:00
7:15 PM,68.0,60.8,78,29.88,10.0,SSW,11.5,17.3,0.07,,Overcast,210,2013-04-19 23:15:00
7:35 PM,66.2,60.8,83,29.88,10.0,South,13.8,18.4,0.13,,Overcast,190,2013-04-19 23:35:00
7:55 PM,66.2,60.8,83,29.87,10.0,South,9.2,-,0.15,,Overcast,180,2013-04-19 23:55:00
8:15 PM,66.2,60.8,83,29.88,10.0,South,10.4,-,0.01,,Mostly Cloudy,180,2013-04-20 00:15:00
8:35 PM,66.2,62.6,88,29.89,10.0,SSW,9.2,-,0.02,,Mostly Cloudy,200,2013-04-20 00:35:00
8:55 PM,68.0,62.6,83,29.90,10.0,SSW,13.8,19.6,0.03,,Overcast,210,2013-04-20 00:55:00
9:15 PM,66.2,62.6,88,29.89,10.0,SSW,10.4,-,0.01,,Overcast,210,2013-04-20 01:15:00
9:35 PM,69.8,62.6,78,29.88,10.0,SW,11.5,-,0.02,,Mostly Cloudy,220,2013-04-20 01:35:00
9:55 PM,68.0,62.6,83,29.87,10.0,South,9.2,-,0.02,,Mostly Cloudy,190,2013-04-20 01:55:00
10:15 PM,68.0,62.6,83,29.86,10.0,South,10.4,-,N/A,,Mostly Cloudy,180,2013-04-20 02:15:00
10:35 PM,68.0,62.6,83,29.87,10.0,SSW,10.4,-,N/A,,Mostly Cloudy,210,2013-04-20 02:35:00
10:55 PM,69.8,62.6,78,29.88,10.0,SSW,12.7,-,N/A,,Mostly Cloudy,210,2013-04-20 02:55:00
11:15 PM,69.8,62.6,78,29.90,10.0,SW,10.4,-,N/A,,Mostly Cloudy,230,2013-04-20 03:15:00
11:35 PM,68.0,60.8,78,29.91,10.0,WSW,16.1,25.3,0.01,,Overcast,240,2013-04-20 03:35:00
11:55 PM,64.4,55.4,73,29.93,10.0,West,21.9,32.2,0.02,,Overcast,270,2013-04-20 03:55:00